User: anonymous   Login
Location: Unspecified
(0.0000°N, 0.0000°E)
Time: 10:50:35
(UTC+00:00)
Language:

Spot 1 - Orbit

View from above orbital plane
View from above orbital plane
View from above satellite
View from above satellite

Ground track
Ground track

The orbit data is extracted from the following two-line orbital elements,

1 16613U 86019A   18201.20288034  .00000038  00000-0  16611-4 0  9990
2 16613  98.6692 277.7137 0141538 246.5094 137.2127 14.65041690387754
Epoch (UTC): 20 July 2018 04:52:08
Eccentricity: 0.0141538
inclination: 98.6692°
perigee height: 577 km
apogee height: 777 km
right ascension of ascending node: 277.7137°
argument of perigee: 246.5094°
revolutions per day: 14.65041690
mean anomaly at epoch: 137.2127°
orbit number at epoch: 38775

The dashed part of the orbit path shows where the satellite is in the earth's shadow,  

DLR